Location: Howard City Library
(37.4684°N, 96.2639°W)
Time: 18:50:57
(UTC+00:00)

Milstar 3 - Pass Details

Date: 18 February 2020
Orbit: 1101 x 5144 km, 28.2° (Epoch: 26 March)

Event Time Altitude Azimuth Distance (km) Brightness Sun altitude
Exits shadow 11:15:08 30° 255° (WSW) 4,334 5.2 -23.7°
Maximum altitude 11:23:38 52° 197° (SSW) 2,628 4.5 -22.0°
Drops below altitude 10° 11:33:00 10° 123° (ESE) 3,710 6.3 -20.1°
Sets 11:35:31 0° 118° (ESE) 4,444 7.0 -19.6°
